Date String (YYYY-MM-DD hh:mm:ss) UTC,Instrument flags,absolute air pressure of the measurement (hPa),sample flow rate (lpm),inlet stack bypass flow (lpm),air temperature of the measurement (°C),ambient temperature measured by the external sensor (°C),aerosol sample conditioner tube jacket temperature (°C),OPC LED temperature (°C),internal box temperature (°C),relative humidity of the measurement (%),span deviation,mass concentration of particles derived from Lorenz-Mie calculation of OPC scattering (μg/m³),mass concentration of particles derived from Lorenz-Mie calculation of OPC scattering (μg/m³),mass concentration of particles derived from Lorenz-Mie calculation of OPC scattering (μg/m³)
DateTimeUTC,F1_M11,P_M11,Q1_M11,Q2_M11,T1_M11,T2_M11,T3_M11,T4_M11,T5_M11,U1_M11,ZSPAN_M11,X0_M11,X2_M11,X1_M11
2023-08-23 15:00:00,SystemResetWarning,0836.1,5.00,000.00,028.2,026.9,000.0,036.6,030.0,29.3,0001.1,0014.99,0007.31,0006.28
2023-08-23 15:01:00,SystemResetWarning,0836.1,5.00,000.00,028.3,027.0,000.0,036.6,030.0,28.6,0001.4,0014.88,0007.35,0006.32
2023-08-23 15:02:00,SystemResetWarning,0836.1,4.99,000.00,028.3,026.1,000.0,036.5,029.9,30.2,0001.4,0014.70,0007.35,0006.34
2023-08-23 15:03:00,SystemResetWarning,0836.1,5.01,000.00,028.2,024.7,000.0,036.4,029.6,29.2,0001.6,0014.80,0007.38,0006.36
2023-08-23 15:04:00,SystemResetWarning,0836.1,5.00,000.00,028.1,024.6,000.0,036.3,029.5,29.4,0001.3,0015.58,0007.43,0006.40
2023-08-23 15:05:00,SystemResetWarning,0836.1,5.01,000.00,028.1,024.9,000.0,036.4,029.5,29.9,0001.4,0017.02,0007.51,0006.44
2023-08-23 15:06:00,SystemResetWarning,0836.1,4.99,000.00,028.1,025.2,000.0,036.4,029.5,30.7,0001.6,0016.82,0007.56,0006.47
2023-08-23 15:07:00,SystemResetWarning,0836.1,5.00,000.00,028.1,025.6,000.0,036.5,029.6,30.4,0001.3,0017.35,0007.61,0006.48
2023-08-23 15:08:00,SystemResetWarning,0836.1,5.00,000.00,028.1,025.9,000.0,036.5,029.7,29.6,0001.0,0019.24,0007.68,0006.50
2023-08-23 15:09:00,SystemResetWarning,0836.1,5.01,000.00,028.1,026.2,000.0,036.5,029.8,29.0,0001.3,0018.24,0007.72,0006.52
2023-08-23 15:10:00,SystemResetWarning,0836.1,4.99,000.00,028.2,026.5,000.0,036.5,029.9,29.1,0001.0,0017.89,0007.74,0006.54
2023-08-23 15:11:00,SystemResetWarning,0836.1,5.00,000.00,028.2,026.7,000.0,036.6,029.9,30.0,0000.6,0017.63,0007.70,0006.54
2023-08-23 15:12:00,SystemResetWarning,0836.1,5.00,000.00,028.2,026.7,000.0,036.6,030.0,30.1,0000.6,0017.77,0007.67,0006.54
2023-08-23 15:13:00,SystemResetWarning,0836.1,4.99,000.00,028.2,025.5,000.0,036.4,029.7,29.6,0000.9,0018.22,0007.72,0006.55
2023-08-23 15:14:00,SystemResetWarning,0836.1,5.00,000.00,028.1,024.4,000.0,036.3,029.4,28.5,0000.6,0018.78,0007.72,0006.56
2023-08-23 15:15:00,SystemResetWarning,0836.1,5.01,000.00,028.1,024.6,000.0,036.3,029.4,29.9,0001.0,0017.97,0007.67,0006.55
2023-08-23 15:16:00,SystemResetWarning,0836.1,5.01,000.00,028.0,025.0,000.0,036.4,029.5,29.6,0000.9,0016.56,0007.60,0006.53
2023-08-23 15:17:00,SystemResetWarning,0836.1,5.00,000.00,028.0,025.3,000.0,036.4,029.5,29.7,0000.9,0016.34,0007.53,0006.52
2023-08-23 15:18:00,SystemResetWarning,0836.2,5.00,000.00,028.0,025.7,000.0,036.4,029.6,29.5,0000.7,0016.35,0007.43,0006.48
2023-08-23 15:19:00,SystemResetWarning,0836.2,5.00,000.00,028.1,026.0,000.0,036.4,029.7,28.7,0001.0,0014.97,0007.35,0006.48
2023-08-23 15:20:00,SystemResetWarning,0836.2,5.00,000.00,028.1,026.3,000.0,036.5,029.8,29.1,0001.3,0014.91,0007.28,0006.47
2023-08-23 15:21:00,SystemResetWarning,0836.1,5.00,000.00,028.1,026.6,000.0,036.5,029.8,30.6,0001.7,0015.14,0007.26,0006.47
2023-08-23 15:22:00,SystemResetWarning,0836.2,4.99,000.00,028.2,026.2,000.0,036.4,029.8,29.8,0002.3,0015.11,0007.27,0006.47
2023-08-23 15:23:00,SystemResetWarning,0836.2,5.01,000.00,028.1,024.8,000.0,036.3,029.5,29.9,0002.3,0015.03,0007.29,0006.48
2023-08-23 15:24:00,SystemResetWarning,0836.1,5.02,000.00,028.0,024.3,000.0,036.2,029.4,28.7,0002.1,0014.48,0007.28,0006.48
2023-08-23 15:25:00,SystemResetWarning,0836.2,5.00,000.00,027.9,024.7,000.0,036.2,029.4,29.2,0002.1,0013.65,0007.31,0006.50
2023-08-23 15:26:00,SystemResetWarning,0836.2,5.01,000.00,027.9,025.0,000.0,036.3,029.4,28.9,0001.7,0014.15,0007.36,0006.49
2023-08-23 15:27:00,SystemResetWarning,0836.2,5.00,000.00,027.9,025.4,000.0,036.3,029.5,29.2,0001.4,0014.92,0007.39,0006.51
2023-08-23 15:28:00,SystemResetWarning,0836.2,5.00,000.00,027.9,025.8,000.0,036.4,029.6,29.9,0001.0,0015.10,0007.45,0006.54
2023-08-23 15:29:00,SystemResetWarning,0836.2,5.00,000.00,028.0,026.1,000.0,036.4,029.7,28.6,0001.2,0014.69,0007.52,0006.56
2023-08-23 15:30:00,SystemResetWarning,0836.2,5.00,000.00,028.0,026.4,000.0,036.4,029.7,28.5,0001.3,0014.18,0007.59,0006.58
2023-08-23 15:31:00,SystemResetWarning,0836.2,4.99,000.00,028.1,026.1,000.0,036.3,029.7,29.3,0001.2,0013.42,0007.67,0006.60
2023-08-23 15:32:00,SystemResetWarning,0836.1,5.00,000.00,028.0,024.7,000.0,036.2,029.4,30.3,0001.1,0013.74,0007.73,0006.61
2023-08-23 15:33:00,SystemResetWarning,0836.1,5.00,000.00,027.9,024.2,000.0,036.1,029.3,29.0,0000.8,0015.03,0007.81,0006.62
2023-08-23 15:34:00,SystemResetWarning,0836.1,5.01,000.00,027.8,024.5,000.0,036.2,029.2,29.5,0000.4,0016.13,0007.87,0006.63
2023-08-23 15:35:00,SystemResetWarning,0836.1,5.00,000.00,027.8,024.9,000.0,036.2,029.3,29.0,0000.4,0016.77,0007.92,0006.64
2023-08-23 15:36:00,SystemResetWarning,0836.1,4.99,000.00,027.8,025.3,000.0,036.2,029.4,29.1,-000.1,0017.30,0007.95,0006.64
2023-08-23 15:37:00,SystemResetWarning,0836.2,5.00,000.00,027.8,025.7,000.0,036.3,029.5,29.1,-000.1,0017.65,0008.05,0006.65
2023-08-23 15:38:00,SystemResetWarning,0836.2,5.00,000.00,027.9,026.0,000.0,036.3,029.6,28.7,0000.0,0017.48,0008.09,0006.67
2023-08-23 15:39:00,SystemResetWarning,0836.2,5.01,000.00,027.9,026.3,000.0,036.3,029.7,29.0,0000.2,0017.75,0008.09,0006.67
2023-08-23 15:40:00,SystemResetWarning,0836.2,4.99,000.00,028.0,026.5,000.0,036.3,029.7,29.2,0000.5,0018.17,0008.07,0006.68
2023-08-23 15:41:00,SystemResetWarning,0836.2,4.99,000.00,028.0,025.6,000.0,036.2,029.6,29.3,0000.9,0018.26,0008.05,0006.70
2023-08-23 15:42:00,SystemResetWarning,0836.2,5.00,000.00,027.9,024.3,000.0,036.1,029.3,29.3,0000.7,0018.57,0008.04,0006.69
2023-08-23 15:43:00,SystemResetWarning,0836.2,5.01,000.00,027.8,024.4,000.0,036.1,029.2,29.4,0000.7,0018.33,0008.03,0006.70
2023-08-23 15:44:00,SystemResetWarning,0836.2,5.00,000.00,027.8,024.7,000.0,036.1,029.2,28.8,0000.8,0017.70,0007.99,0006.69
2023-08-23 15:45:00,SystemResetWarning,0836.2,5.00,000.00,027.8,025.1,000.0,036.1,029.3,28.3,0001.4,0016.91,0007.97,0006.69
2023-08-23 15:46:00,SystemResetWarning,0836.2,5.00,000.00,027.8,025.5,000.0,036.2,029.5,29.1,0001.4,0016.28,0007.96,0006.70
2023-08-23 15:47:00,SystemResetWarning,0836.2,5.00,000.00,027.8,025.9,000.0,036.2,029.5,28.2,0002.0,0015.95,0007.93,0006.70
2023-08-23 15:48:00,SystemResetWarning,0836.2,4.99,000.00,027.9,026.2,000.0,036.2,029.6,28.7,0002.1,0015.29,0007.82,0006.69
2023-08-23 15:49:00,SystemResetWarning,0836.2,5.00,000.00,027.9,026.4,000.0,036.2,029.7,28.9,0002.1,0015.01,0007.79,0006.67
2023-08-23 15:50:00,SystemResetWarning,0836.2,4.98,000.00,027.9,025.7,000.0,036.2,029.5,28.4,0002.2,0015.95,0007.84,0006.66
2023-08-23 15:51:00,SystemResetWarning,0836.2,5.01,000.00,027.8,024.5,000.0,036.1,029.3,28.7,0002.2,0016.06,0007.86,0006.66
2023-08-23 15:52:00,SystemResetWarning,0836.2,5.02,000.00,027.8,024.4,000.0,036.0,029.2,29.0,0001.6,0016.08,0007.90,0006.67
2023-08-23 15:53:00,SystemResetWarning,0836.2,5.00,000.00,027.7,024.8,000.0,036.0,029.3,29.8,0001.2,0016.06,0007.90,0006.68
2023-08-23 15:54:00,SystemResetWarning,0836.2,5.01,000.00,027.7,025.1,000.0,036.1,029.3,29.1,0001.1,0017.01,0007.93,0006.68
2023-08-23 15:55:00,SystemResetWarning,0836.2,5.00,000.00,027.8,025.5,000.0,036.1,029.4,29.1,0001.2,0017.41,0007.97,0006.68
2023-08-23 15:56:00,SystemResetWarning,0836.2,5.00,000.00,027.8,025.9,000.0,036.2,029.5,29.9,0001.1,0017.22,0007.98,0006.68
2023-08-23 15:57:00,SystemResetWarning,0836.2,5.00,000.00,027.8,026.2,000.0,036.2,029.6,28.4,0001.0,0017.43,0008.02,0006.67
2023-08-23 15:58:00,SystemResetWarning,0836.2,4.99,000.00,027.9,026.2,000.0,036.2,029.6,29.2,0000.9,0018.86,0008.08,0006.68
2023-08-23 15:59:00,SystemResetWarning,0836.2,5.00,000.00,027.8,025.0,000.0,036.1,029.3,29.5,0001.4,0019.77,0008.17,0006.70
